OITTUACC

Guest
Details From OITT - Tabriz Intl
To UACC - Astana Intl
Flight Number -
Tags Generated
Created
Modified
Stats Distance 1,317 nm / 2,439 km
Max Altitude 0 ft / 0 m
Waypoints 4
Social Downloads 0
Likes 0
Share VATSIM

Download

Looking for another format? Having issues loading an existing format? Contact us
Advertisement - Login to hide

Notes

Generated

Route

OITT BABEK AST UACC

ID Type Via Altitude Latitude Longitude Leg Dist Tot Dist Heading (true) Name
O OITT APT - 0 ft / 0 m 38.14227˚ 46.21870˚ - 0 nm - -
BABEK FIX - 0 ft / 0 m 40.72500˚ 49.78833˚ 226 nm 226 nm 46° / 48° -
AST VOR - 0 ft / 0 m 51.00111˚ 71.43417˚ 1089 nm 1315 nm 48° / 64° ASTANA VOR-DME
O UACC APT - 0 ft / 0 m 51.01097˚ 71.44957˚ 0 nm 1316 nm 45° / 45° -

Altitude Profile

Advertisement - Login to hide

Weather


0- 5 10 15 20 25 30 35+ Temperature / ° C

Clouds and Precipitation
Forecast for 2018-05-21 06:00 UTC. Updated 34 minutes ago

Ground ~20,000 ft ~40,000 ft Winds

OITT

Details ICAO OITT (TBZ)
Name TABRIZ INTL
Region Iran
Timezone Asia/Tehran (UTC+4.5)
Stats Elevation 4,459 ft / 1,359 m (AMSL)
Location 38.132990° 46.234937°
Runways 2
Magnetic Variation 5.662° E

METAR

OITT 210530Z 35004KT 9999 FEW030CB SCT040 BKN090 19/10 Q1021 A3017

Decode

TAF

Not found

Departure Runways

ID Width Length Bearing (true) Bearing (mag) Surface Threshold Offset Overrun Length
12L 148 ft / 45 m 11,818 ft / 3,602 m 129.05° 123.39° Asphalt 0 ft / 0 m 355 ft / 108 m
12R 98 ft / 30 m 11,531 ft / 3,515 m 128.97° 123.31° Asphalt 0 ft / 0 m 340 ft / 104 m
30L 98 ft / 30 m 11,531 ft / 3,515 m 308.99° 303.33° Asphalt 0 ft / 0 m 1,130 ft / 344 m
30R 148 ft / 45 m 11,818 ft / 3,602 m 309.07° 303.41° Asphalt 0 ft / 0 m 340 ft / 104 m

UACC

Details ICAO UACC (TSE)
Name Astana INTL
Region Kazakhstan and Kyrgyzstan
Timezone Asia/Almaty (UTC+6.0)
Stats Elevation 1,165 ft / 355 m (AMSL)
Location 51.022180° 71.467062°
Runways 1
Magnetic Variation 9.865° E

METAR

UACC 210530Z 24010MPS CAVOK 23/M01 Q1022 R22/0///70 NOSIG RMK QFE735/0980

Decode

TAF

TAF UACC 202300Z 2100/2124 25009MPS 9999 SCT040 BKN100 TX27/2109Z TN13/2123Z TEMPO 2103/2112 26009G14MPS SCT040CB BECMG 2112/2114 SCT040CB BKN100 PROB40 TEMPO 2114/2124 VRB12MPS TS SQ BKN040CB

Decode

Destination Runways

ID Width Length Bearing (true) Bearing (mag) Surface Threshold Offset Overrun Length
04 148 ft / 45 m 11,467 ft / 3,495 m 44.45° 34.59° Asphalt 0 ft / 0 m 0 ft / 0 m
22 148 ft / 45 m 11,467 ft / 3,495 m 224.48° 214.62° Asphalt 0 ft / 0 m 0 ft / 0 m

Approach Navaids

Runway Type Ident Frequency Range Bearing (true) Bearing (mag) Slope Elevation
04 Localiser IMO 109.50 MHz 18 nm / 33 km 44.29° 34.43° - 1,165 ft / 355 m (AMSL)
04 Glidescope IMO 109.50 MHz 10 nm / 19 km 44.46° 34.60° 3.00° 1,165 ft / 355 m (AMSL)
22 Localiser IAK 111.70 MHz 18 nm / 33 km 224.56° 214.70° - 1,165 ft / 355 m (AMSL)
22 Glidescope IAK 111.70 MHz 10 nm / 19 km 224.46° 214.60° 3.00° 1,165 ft / 355 m (AMSL)